COSMOS 1844

Last updated on Sun Jun 21 2026 00:02:15 GMT+0000 (Coordinated Universal Time)

1 17973U 87041A 26171.43067367 -.00000089 00000+0 -20711-4 0 9993 2 17973 70.8964 177.4655 0032728 230.8045 129.0169 14.14567297 18117
UTC large
Height (km)
Speed (km/s)
/
Latitude / Longitude
Inclination (degrees)
Orbital Period (minutes)
Azimuth
Elevation
Range (km)
Doppler Factor

Next 0 passes for location: London (51.5072 / 0.1276)

No passes found over London.
COSMOS 1844